Weather History for PAEN - August, 2013

Change the Weather History Date:

Thursday, August 29, 2013

  Actual Average (PANC) Record (PANC)
Temperature  
Mean Temperature 52 °F 54 °F  
Max Temperature 54 °F 61 °F 77 °F (1930)
Min Temperature 51 °F 47 °F 33 °F (1984)
Degree Days  
Heating Degree Days 12    
Month to date heating degree days  
Since 1 June heating degree days  
Since 1 July heating degree days  
Cooling Degree Days 0    
Month to date cooling degree days  
Year to date cooling degree days  
Since 1 June cooling degree days  
Growing Degree Days 2 (Base 50)    
Moisture  
Dew Point 51 °F    
Average Humidity 96    
Maximum Humidity 100    
Minimum Humidity 94    
Precipitation  
Precipitation 0.58 in 0.12 in 0.78 in (1993)
Month to date precipitation 3.03  
Year to date precipitation 9.07  
Snow  
Snow 0.00 in 0.00 in 0.00 in ()
Month to date snowfall 0.0  
Since 1 June snowfall 0.0  
Since 1 July snowfall 0.0  
Snow Depth -    
Sea Level Pressure  
Sea Level Pressure 29.64 in    
Wind  
Wind Speed 15 mph (NNE)    
Max Wind Speed 21 mph    
Max Gust Speed 29 mph    
Visibility 9 miles    
Events Rain    
T = Trace of Precipitation, MM = Missing Value Source: NWS Daily Summary

Daily Weather History Graph

Daily Weather History Graph

Search for Another Location

Airport or City:

Trip Planner

Search our weather history database for the weather conditions in past years. The results will help you decide how hot, cold, wet, or windy it might be!

Date:

Astronomy

Aug. 29, 2013 Rise Set
Actual Time 6:52 AM AKDT 9:17 PM AKDT
Civil Twilight 6:05 AM AKDT 10:03 PM AKDT
Nautical Twilight 5:03 AM AKDT 11:05 PM AKDT
Astronomical Twilight 3:35 AM AKDT 12:29 AM AKDT
Moon No Moon Rise 5:47 PM AKDT (8/29)
Length of Visible Light 15h 58m
Length of Day
14h 25m
Last Quarter, 36% of the Moon is Illuminated
Aug 29
Last Quarter
Sep 5
New
Sep 12
First Quarter
Sep 19
Full
Sep 26
Last Quarter

Hourly Weather History & Observations

Time (AKDT) Temp. Dew Point Humidity Pressure Visibility Wind Dir Wind Speed Gust Speed Precip Events Conditions
12:44 AM 51.8 °F 51.8 °F 100% 29.53 in 8.0 mi NE 12.7 mph - 0.04 in Rain Light Rain
12:53 AM 52.0 °F 51.1 °F 97% 29.54 in 9.0 mi NE 11.5 mph - 0.04 in Rain Light Rain
1:10 AM 51.8 °F 51.8 °F 100% 29.53 in 8.0 mi NE 12.7 mph - 0.01 in Rain Light Rain
1:25 AM 51.8 °F 51.8 °F 100% 29.53 in 7.0 mi NNE 16.1 mph 21.9 mph 0.03 in Rain Light Rain
1:53 AM 51.1 °F 50.0 °F 96% 29.53 in 6.0 mi NNE 12.7 mph - 0.06 in Rain Light Rain
2:14 AM 51.8 °F 50.0 °F 94% 29.52 in 6.0 mi NNE 16.1 mph 23.0 mph 0.03 in Rain Light Rain
2:53 AM 51.1 °F 50.0 °F 96% 29.52 in 9.0 mi NNE 17.3 mph 24.2 mph 0.06 in Rain Light Rain
3:11 AM 51.8 °F 50.0 °F 94% 29.51 in 7.0 mi NNE 18.4 mph 26.5 mph 0.02 in Rain Light Rain
3:20 AM 51.8 °F 50.0 °F 94% 29.51 in 8.0 mi NNE 16.1 mph 28.8 mph 0.03 in Rain Light Rain
3:30 AM 51.8 °F 50.0 °F 94% 29.52 in 8.0 mi NNE 18.4 mph - 0.04 in Rain Light Rain
3:37 AM 51.8 °F 50.0 °F 94% 29.52 in 8.0 mi NNE 17.3 mph - 0.04 in Rain Light Rain
3:53 AM 51.1 °F 50.0 °F 96% 29.52 in 7.0 mi NNE 17.3 mph 24.2 mph 0.06 in Rain Light Rain
4:53 AM 51.1 °F 50.0 °F 96% 29.52 in 8.0 mi NNE 16.1 mph 25.3 mph 0.05 in Rain Light Rain
5:53 AM 51.1 °F 50.0 °F 96% 29.53 in 8.0 mi NNE 19.6 mph 25.3 mph 0.04 in Rain Light Rain
6:53 AM 51.1 °F 50.0 °F 96% 29.54 in 6.0 mi NNE 18.4 mph 26.5 mph 0.05 in Rain Light Rain
7:53 AM 51.1 °F 50.0 °F 96% 29.57 in 7.0 mi NNE 18.4 mph 26.5 mph 0.04 in Rain Light Rain
7:55 AM 51.8 °F 50.0 °F 94% 29.56 in 7.0 mi NNE 19.6 mph 26.5 mph 0.00 in Rain Light Rain
8:25 AM 51.8 °F 50.0 °F 94% 29.56 in 10.0 mi NNE 18.4 mph 25.3 mph 0.01 in Rain Light Rain
8:53 AM 51.1 °F 50.0 °F 96% 29.58 in 8.0 mi NNE 20.7 mph 25.3 mph 0.03 in Rain Light Rain
9:53 AM 51.1 °F 50.0 °F 96% 29.60 in 10.0 mi NNE 17.3 mph 27.6 mph 0.01 in Rain Light Rain
10:53 AM 52.0 °F 51.1 °F 97% 29.64 in 10.0 mi NNE 17.3 mph - 0.02 in Rain Light Rain
11:18 AM 51.8 °F 51.8 °F 100% 29.64 in 10.0 mi NNE 20.7 mph 24.2 mph 0.01 in Rain Light Rain
11:53 AM 52.0 °F 51.1 °F 97% 29.66 in 10.0 mi NNE 17.3 mph - 0.01 in Rain Light Rain
12:53 PM 52.0 °F 51.1 °F 97% 29.68 in 10.0 mi NNE 18.4 mph 25.3 mph N/A   Mostly Cloudy
1:53 PM 52.0 °F 51.1 °F 97% 29.72 in 10.0 mi NNE 17.3 mph - 0.00 in Rain Light Rain
2:53 PM 53.1 °F 52.0 °F 96% 29.73 in 10.0 mi North 15.0 mph - 0.03 in Rain Light Rain
3:31 PM 53.6 °F 53.6 °F 100% 29.74 in 10.0 mi NNE 15.0 mph - 0.01 in Rain Light Rain
3:53 PM 54.0 °F 53.1 °F 97% 29.75 in 10.0 mi NNE 16.1 mph - 0.02 in Rain Light Rain
4:53 PM 53.1 °F 52.0 °F 96% 29.77 in 9.0 mi NNE 18.4 mph - 0.01 in Rain Light Rain
5:53 PM 53.1 °F 52.0 °F 96% 29.79 in 10.0 mi NNE 15.0 mph - 0.03 in Rain Light Rain
6:53 PM 53.1 °F 53.1 °F 100% 29.81 in 10.0 mi NNE 15.0 mph - 0.01 in Rain Light Rain
7:53 PM 53.1 °F 52.0 °F 96% 29.82 in 10.0 mi NNE 10.4 mph - 0.00 in Rain Light Rain
8:53 PM 53.1 °F 52.0 °F 96% 29.83 in 10.0 mi NNE 9.2 mph - 0.01 in   Overcast
9:53 PM 53.1 °F 52.0 °F 96% 29.84 in 10.0 mi NNE 8.1 mph - N/A   Overcast
10:53 PM 53.1 °F 52.0 °F 96% 29.86 in 10.0 mi North 8.1 mph - N/A   Overcast
11:53 PM 53.1 °F 52.0 °F 96% 29.88 in 10.0 mi North 6.9 mph - N/A   Overcast